KD2RHT-13 Weather Reports


Display with metric or nautical units.
time (UTC)temp
F
wind
direction
speed
MPH
gust
MPH
rain 1hr
in
rain 24hr
in
rain mn
in
humidity
%
barometer
mb
20260905131724 68 160 0.0 0.0 0.00 0.00 0.00 93 1015.2
20260905131220 67 162 0.0 0.0 0.00 0.00 0.00 93 1015.6
20260905130714 67 306 1.0 2.0 0.00 0.00 0.00 93 1015.2
20260905130214 67 151 0.0 0.0 0.00 0.00 0.00 93 1015.6
20260905125709 66 138 0.0 1.0 0.00 0.00 0.00 94 1015.6
20260905125204 66 166 0.0 0.0 0.00 0.00 0.00 95 1015.6
20260905124700 66 154 0.0 0.0 0.00 0.00 0.00 95 1015.6
20260905124156 65 158 0.0 0.0 0.00 0.00 0.00 96 1015.6
20260905123651 65 159 0.0 0.0 0.00 0.00 0.00 96 1015.6
20260905123148 65 133 2.0 2.0 0.00 0.00 0.00 97 1015.2
20260905122647 64 162 0.0 1.0 0.00 0.00 0.00 97 1015.6
20260905122142 64 156 0.0 0.0 0.00 0.00 0.00 97 1015.2
20260905121637 63 161 0.0 0.0 0.00 0.00 0.00 98 1015.2
20260905121132 64 166 0.0 0.0 0.00 0.00 0.00 99 1015.6
20260905120631 63 173 0.0 0.0 0.00 0.00 0.00 99 1015.2
20260905120126 64 169 0.0 0.0 0.00 0.00 0.00 99 1015.6
20260905115626 64 165 0.0 0.0 0.00 0.00 0.00 99 1015.2
20260905115121 65 164 0.0 0.0 0.00 0.00 0.00 99 1014.9
20260905114620 65 164 0.0 0.0 0.00 0.00 0.00 99 1014.9
20260905114119 63 164 0.0 0.0 0.00 0.00 0.00 99 1014.9
20260905113614 61 167 0.0 0.0 0.00 0.00 0.00 99 1015.2
20260905113110 59 166 0.0 0.0 0.00 0.00 0.00 99 1014.9
20260905112604 59 165 0.0 0.0 0.00 0.00 0.00 99 1014.9
20260905112100 58 165 0.0 0.0 0.00 0.00 0.00 99 1014.9
20260905111555 58 167 0.0 0.0 0.00 0.00 0.00 99 1014.9
20260905111054 58 169 0.0 0.0 0.00 0.00 0.00 99 1014.9
20260905110553 58 170 0.0 0.0 0.00 0.00 0.00 99 1014.9
20260905110048 58 170 0.0 0.0 0.00 0.00 0.00 99 1014.9
20260905105548 57 172 0.0 0.0 0.00 0.00 0.00 99 1014.9
20260905105048 58 170 0.0 0.0 0.00 0.00 0.00 99 1014.5
20260905104544 57 169 0.0 0.0 0.00 0.00 0.00 99 1014.2
20260905104043 58 169 0.0 0.0 0.00 0.00 0.00 99 1014.2
20260905103538 58 170 0.0 0.0 0.00 0.00 0.00 99 1014.2
20260905103035 58 170 0.0 0.0 0.00 0.00 0.00 99 1013.9
20260905102530 58 170 0.0 0.0 0.00 0.00 0.00 99 1014.2
20260905102026 58 171 0.0 0.0 0.00 0.00 0.00 99 1014.2
20260905101524 58 171 0.0 0.0 0.00 0.00 0.00 99 1014.5
20260905101023 58 171 0.0 0.0 0.00 0.00 0.00 99 1014.2
20260905100520 58 171 0.0 0.0 0.00 0.00 0.00 99 1014.2
20260905100019 59 169 0.0 0.0 0.00 0.00 0.00 99 1013.9
20260905095514 59 173 0.0 0.0 0.00 0.00 0.00 99 1013.9
20260905095009 59 173 0.0 0.0 0.00 0.00 0.00 99 1014.2
20260905094504 59 171 0.0 0.0 0.00 0.00 0.00 99 1014.2
20260905094003 59 171 0.0 0.0 0.00 0.00 0.00 99 1013.9
20260905093458 59 172 0.0 0.0 0.00 0.00 0.00 99 1014.2
20260905092954 59 172 0.0 0.0 0.00 0.00 0.00 99 1014.2
20260905092443 59 171 0.0 0.0 0.00 0.00 0.00 99 1014.2
20260905091938 59 176 0.0 0.0 0.00 0.00 0.00 99 1014.2
20260905091432 58 172 0.0 0.0 0.00 0.00 0.00 99 1014.2
20260905090931 59 172 0.0 0.0 0.00 0.00 0.00 99 1014.5
20260905090427 59 172 0.0 0.0 0.00 0.00 0.00 99 1014.2
20260905085927 59 172 0.0 0.0 0.00 0.00 0.00 99 1014.2
20260905085425 59 173 0.0 0.0 0.00 0.00 0.00 99 1014.2
20260905084922 59 173 0.0 0.0 0.00 0.00 0.00 99 1014.2
20260905084421 59 173 0.0 0.0 0.00 0.00 0.00 99 1014.5
20260905083916 59 172 0.0 0.0 0.00 0.00 0.00 99 1014.5
20260905083412 59 170 0.0 0.0 0.00 0.00 0.00 99 1014.5
20260905082907 60 171 0.0 0.0 0.00 0.00 0.00 99 1014.5
20260905082403 59 173 0.0 0.0 0.00 0.00 0.00 99 1014.5
20260905081853 59 175 0.0 0.0 0.00 0.00 0.00 99 1014.5
20260905081348 60 172 0.0 0.0 0.00 0.00 0.00 99 1014.5
20260905080846 60 170 0.0 0.0 0.00 0.00 0.00 99 1014.2
20260905080341 60 173 0.0 0.0 0.00 0.00 0.00 99 1014.5
20260905075839 60 172 0.0 0.0 0.00 0.00 0.00 99 1014.9
20260905075334 60 172 0.0 0.0 0.00 0.00 0.00 99 1014.5
20260905074833 60 172 0.0 0.0 0.00 0.00 0.00 99 1014.2
20260905074330 60 170 0.0 0.0 0.00 0.00 0.00 99 1014.5
20260905073825 61 170 0.0 0.0 0.00 0.00 0.00 99 1014.2
20260905073319 61 174 0.0 0.0 0.00 0.00 0.00 99 1014.2
20260905072814 61 173 0.0 0.0 0.00 0.00 0.00 99 1014.5
20260905072309 61 173 0.0 0.0 0.00 0.00 0.00 99 1014.2
20260905071806 61 173 0.0 0.0 0.00 0.00 0.00 99 1014.2
20260905071302 61 172 0.0 0.0 0.00 0.00 0.00 98 1014.5
20260905070756 61 173 0.0 0.0 0.00 0.00 0.00 98 1014.5
20260905070252 62 173 0.0 0.0 0.00 0.00 0.00 98 1014.5
20260905065751 62 173 0.0 0.0 0.00 0.00 0.00 98 1014.5
20260905065245 62 174 0.0 0.0 0.00 0.00 0.00 98 1014.5
20260905064740 63 173 0.0 0.0 0.00 0.00 0.00 97 1014.5
20260905064236 63 173 0.0 0.0 0.00 0.00 0.00 97 1014.5
20260905063734 63 174 0.0 0.0 0.00 0.00 0.00 97 1014.5
20260905063230 63 173 0.0 0.0 0.00 0.00 0.00 97 1014.9
20260905062726 64 173 0.0 0.0 0.00 0.00 0.00 96 1014.5
20260905062225 64 173 0.0 0.0 0.00 0.00 0.00 96 1014.9
20260905061720 64 174 0.0 0.0 0.00 0.00 0.00 95 1014.5
20260905061214 65 173 0.0 0.0 0.00 0.00 0.00 95 1014.9
20260905060709 65 173 0.0 0.0 0.00 0.00 0.00 94 1014.5
20260905060206 65 174 0.0 0.0 0.00 0.00 0.00 94 1014.5
20260905055704 66 173 0.0 0.0 0.00 0.00 0.00 93 1014.5
20260905055200 66 173 0.0 0.0 0.00 0.00 0.00 92 1014.5
20260905054655 66 174 0.0 0.0 0.00 0.00 0.00 92 1014.9
20260905054151 66 223 0.0 1.0 0.00 0.00 0.00 92 1014.9
20260905053650 66 229 0.0 0.0 0.00 0.00 0.00 93 1014.9
20260905053140 66 174 0.0 0.0 0.00 0.00 0.00 93 1014.9
20260905052639 66 175 0.0 0.0 0.00 0.00 0.00 94 1014.9
20260905052135 66 177 0.0 0.0 0.00 0.00 0.00 94 1014.9
20260905051629 66 180 0.0 0.0 0.00 0.00 0.00 95 1014.9
20260905051126 66 174 0.0 0.0 0.00 0.00 0.00 95 1015.2
20260905050622 66 171 0.0 0.0 0.00 0.00 0.00 95 1014.9
20260905050118 66 172 0.0 0.0 0.00 0.00 0.00 96 1014.9
20260905045618 66 173 0.0 0.0 0.00 0.00 0.00 96 1014.9
20260905045113 66 172 0.0 0.0 0.00 0.00 0.00 96 1014.9
20260905044608 66 173 0.0 0.0 0.00 0.00 0.00 95 1014.9
20260905044103 66 175 0.0 0.0 0.00 0.00 0.00 95 1014.9
20260905043601 66 174 0.0 0.0 0.00 0.00 0.00 96 1014.9
20260905043057 66 174 0.0 0.0 0.00 0.00 0.00 96 1014.9
20260905042555 67 173 0.0 0.0 0.00 0.00 0.00 96 1014.9
20260905042051 67 173 0.0 0.0 0.00 0.00 0.00 96 1014.9
20260905041546 67 173 0.0 0.0 0.00 0.00 0.00 95 1014.9
20260905041042 67 174 0.0 0.0 0.00 0.00 0.00 95 1014.9
20260905040541 67 177 0.0 0.0 0.00 0.00 0.00 96 1014.9
20260905040040 67 175 0.0 0.0 0.00 0.00 0.00 96 1014.9
20260905035535 67 173 0.0 0.0 0.00 0.00 0.00 96 1014.9
20260905035032 67 332 1.0 2.0 0.00 0.00 0.00 96 1014.9
20260905034527 67 186 0.0 1.0 0.00 0.00 0.00 96 1014.5
20260905034027 67 198 0.0 0.0 0.00 0.00 0.00 96 1014.9
20260905033520 67 199 0.0 0.0 0.00 0.00 0.00 96 1014.9
20260905033017 67 262 2.0 2.0 0.00 0.00 0.00 96 1014.9
20260905032511 67 226 1.0 2.0 0.00 0.00 0.00 96 1014.9
20260905032006 67 168 0.0 1.0 0.00 0.00 0.00 96 1014.9
20260905031502 67 166 0.0 0.0 0.00 0.00 0.00 96 1014.9
20260905030956 67 168 0.0 0.0 0.00 0.00 0.00 96 1014.9
20260905030452 67 171 0.0 0.0 0.00 0.00 0.00 96 1014.5
20260905025951 67 168 0.0 0.0 0.00 0.00 0.00 96 1014.5
20260905025447 67 174 0.0 0.0 0.00 0.00 0.00 96 1014.5
20260905024943 67 202 0.0 0.0 0.00 0.00 0.00 96 1014.5
20260905024443 67 189 0.0 0.0 0.00 0.00 0.00 96 1014.5
20260905023939 67 156 0.0 0.0 0.00 0.00 0.00 95 1014.9
20260905023433 67 159 0.0 0.0 0.00 0.00 0.00 95 1014.9
20260905022932 66 162 0.0 0.0 0.00 0.00 0.00 95 1014.9
20260905022428 66 158 0.0 0.0 0.00 0.00 0.00 96 1014.5
20260905021923 66 160 0.0 0.0 0.00 0.00 0.00 96 1014.9
20260905021417 65 160 0.0 0.0 0.00 0.00 0.00 95 1014.9
20260905020913 65 160 0.0 0.0 0.00 0.00 0.00 95 1014.9
20260905020412 66 160 0.0 0.0 0.00 0.00 0.00 94 1015.2
20260905015912 66 160 0.0 0.0 0.00 0.00 0.00 93 1014.9
20260905015410 66 160 0.0 0.0 0.00 0.00 0.00 92 1015.2
20260905014910 66 160 0.0 0.0 0.00 0.00 0.00 92 1014.9
20260905014405 66 163 0.0 0.0 0.00 0.00 0.00 92 1014.9
20260905013901 67 165 0.0 0.0 0.00 0.00 0.00 91 1014.9
20260905013357 67 163 0.0 0.0 0.00 0.00 0.00 91 1014.9
20260905012852 67 161 0.0 0.0 0.00 0.00 0.00 91 1014.9
20260905012348 67 163 0.0 0.0 0.00 0.00 0.00 90 1014.9
20260905011844 67 161 0.0 0.0 0.00 0.00 0.00 90 1015.2
20260905011339 67 164 0.0 0.0 0.00 0.00 0.00 90 1015.2
20260905010835 67 161 0.0 0.0 0.00 0.00 0.00 89 1014.9
20260905010329 68 163 0.0 0.0 0.00 0.00 0.00 89 1014.9
20260905005826 68 161 0.0 0.0 0.00 0.00 0.00 89 1014.9
20260905005321 68 161 0.0 0.0 0.00 0.00 0.00 88 1014.9
20260905004816 68 161 0.0 0.0 0.00 0.00 0.00 87 1014.9
20260905004310 68 161 0.0 0.0 0.00 0.00 0.00 87 1014.9
20260905003806 69 165 0.0 0.0 0.00 0.00 0.00 86 1014.9
20260905003257 69 161 0.0 0.0 0.00 0.00 0.00 85 1014.9
20260905002751 69 161 0.0 0.0 0.00 0.00 0.00 84 1014.9
20260905002251 69 160 0.0 0.0 0.00 0.00 0.00 83 1014.9
20260905001746 70 165 0.0 0.0 0.00 0.00 0.00 83 1014.9
20260905001245 70 161 0.0 0.0 0.00 0.00 0.00 82 1014.9
20260905000741 70 162 0.0 0.0 0.00 0.00 0.00 82 1014.5
20260905000236 70 160 0.0 0.0 0.00 0.00 0.00 81 1014.5
20260904235731 70 165 0.0 0.0 0.00 0.00 0.00 82 1014.5
20260904235226 70 162 0.0 0.0 0.00 0.00 0.00 81 1014.9
20260904234720 70 158 0.0 0.0 0.00 0.00 0.00 81 1014.9
20260904234216 70 161 0.0 0.0 0.00 0.00 0.00 82 1014.5
20260904233712 70 160 0.0 0.0 0.00 0.00 0.00 81 1014.5
20260904233208 70 160 0.0 0.0 0.00 0.00 0.00 80 1014.5
20260904232704 70 161 0.0 0.0 0.00 0.00 0.00 80 1014.5
20260904232201 71 161 0.0 0.0 0.00 0.00 0.00 79 1014.5
20260904231656 71 164 0.0 0.0 0.00 0.00 0.00 79 1014.5
20260904231151 72 162 0.0 0.0 0.00 0.00 0.00 77 1014.2
20260904230650 72 156 0.0 0.0 0.00 0.00 0.00 76 1014.5
20260904230145 72 162 0.0 0.0 0.00 0.00 0.00 75 1014.2
20260904225643 73 211 0.0 1.0 0.00 0.00 0.00 74 1014.2
20260904225138 73 128 0.0 1.0 0.00 0.00 0.00 74 1014.5
20260904224632 73 157 1.0 1.0 0.00 0.00 0.00 74 1014.2
20260904224127 73 261 4.0 6.0 0.00 0.00 0.00 72 1014.2
20260904223626 74 273 2.0 2.0 0.00 0.00 0.00 72 1014.2
20260904223122 74 314 3.0 5.0 0.00 0.00 0.00 71 1014.2
20260904222618 74 169 1.0 1.0 0.00 0.00 0.00 72 1014.5
20260904222113 74 118 2.0 3.0 0.00 0.00 0.00 71 1014.2
20260904221613 74 299 3.0 5.0 0.00 0.00 0.00 70 1014.5
20260904221113 74 165 1.0 2.0 0.00 0.00 0.00 70 1014.2
20260904220608 75 321 3.0 3.0 0.00 0.00 0.00 70 1014.2
20260904215558 75 308 5.0 6.0 0.00 0.00 0.00 68 1014.5
20260904215054 75 164 1.0 1.0 0.00 0.00 0.00 70 1014.2
20260904214549 75 158 0.0 1.0 0.00 0.00 0.00 69 1014.5
20260904214045 75 158 0.0 0.0 0.00 0.00 0.00 69 1014.2
20260904213543 75 322 3.0 5.0 0.00 0.00 0.00 69 1014.2
20260904213040 75 265 3.0 5.0 0.00 0.00 0.00 68 1014.2
20260904212539 75 169 0.0 1.0 0.00 0.00 0.00 68 1014.5
20260904212034 76 178 1.0 1.0 0.00 0.00 0.00 67 1014.2
20260904211534 76 124 1.0 2.0 0.00 0.00 0.00 67 1014.2
20260904211030 75 284 3.0 5.0 0.00 0.00 0.00 67 1014.5
20260904210528 75 162 3.0 8.0 0.00 0.00 0.00 66 1014.5
20260904210025 76 322 4.0 8.0 0.00 0.00 0.00 67 1014.5
20260904205520 75 68 3.0 3.0 0.00 0.00 0.00 69 1014.5
20260904205017 76 274 3.0 5.0 0.00 0.00 0.00 67 1014.9
20260904204512 76 172 2.0 5.0 0.00 0.00 0.00 68 1014.9
20260904204008 76 314 2.0 5.0 0.00 0.00 0.00 68 1014.5
20260904203504 76 273 1.0 1.0 0.00 0.00 0.00 68 1014.5
20260904203000 76 272 4.0 5.0 0.00 0.00 0.00 68 1014.5
20260904202456 77 296 9.0 10.0 0.00 0.00 0.00 67 1014.9
20260904201952 77 136 2.0 3.0 0.00 0.00 0.00 69 1014.9
20260904201451 77 179 1.0 2.0 0.00 0.00 0.00 68 1014.9
20260904200947 77 273 2.0 2.0 0.00 0.00 0.00 68 1014.9
20260904200445 78 339 5.0 6.0 0.00 0.00 0.00 66 1014.9
20260904195941 77 189 2.0 2.0 0.00 0.00 0.00 69 1014.9
20260904195438 77 191 3.0 3.0 0.00 0.00 0.00 67 1014.9
20260904194938 78 234 3.0 3.0 0.00 0.00 0.00 67 1014.9
20260904194433 78 51 6.0 8.0 0.00 0.00 0.00 66 1014.9
20260904193928 78 230 4.0 6.0 0.00 0.00 0.00 66 1015.2
20260904193423 79 285 4.0 6.0 0.00 0.00 0.00 65 1015.2
20260904192920 80 155 3.0 5.0 0.00 0.00 0.00 64 1015.2
20260904192420 78 333 5.0 7.0 0.00 0.00 0.00 65 1015.2
20260904191916 78 236 3.0 3.0 0.00 0.00 0.00 65 1015.2
20260904191412 80 28 5.0 6.0 0.00 0.00 0.00 64 1015.2
20260904190909 81 185 2.0 3.0 0.00 0.00 0.00 62 1015.2
20260904190404 81 309 3.0 6.0 0.00 0.00 0.00 63 1015.2
20260904185900 81 347 4.0 6.0 0.00 0.00 0.00 65 1015.2
20260904185355 81 155 1.0 1.0 0.00 0.00 0.00 66 1015.2
20260904184855 81 300 3.0 3.0 0.00 0.00 0.00 64 1015.6
20260904184350 80 151 2.0 2.0 0.00 0.00 0.00 67 1015.6
20260904183845 78 8 5.0 6.0 0.00 0.00 0.00 65 1015.6
20260904183340 79 333 3.0 3.0 0.00 0.00 0.00 64 1015.2
20260904182836 78 331 2.0 3.0 0.00 0.00 0.00 66 1015.6
20260904182331 79 44 5.0 7.0 0.00 0.00 0.00 63 1015.2
20260904181826 80 152 1.0 1.0 0.00 0.00 0.00 64 1015.2
20260904181326 80 275 3.0 3.0 0.00 0.00 0.00 62 1015.6
20260904180822 79 161 0.0 1.0 0.00 0.00 0.00 66 1015.2
20260904180317 78 259 5.0 6.0 0.00 0.00 0.00 64 1015.6
20260904175816 77 196 3.0 5.0 0.00 0.00 0.00 69 1015.2
20260904175315 80 294 6.0 7.0 0.00 0.00 0.00 65 1015.6
20260904174815 81 297 3.0 5.0 0.00 0.00 0.00 65 1015.9
20260904174311 79 290 2.0 5.0 0.00 0.00 0.00 67 1015.9
20260904173807 78 202 3.0 3.0 0.00 0.00 0.00 68 1015.6
20260904173301 78 179 1.0 2.0 0.00 0.00 0.00 68 1015.6
20260904172758 79 238 5.0 6.0 0.00 0.00 0.00 66 1015.6
20260904172256 77 317 2.0 2.0 0.00 0.00 0.00 69 1015.6
20260904171752 78 160 1.0 2.0 0.00 0.00 0.00 68 1015.6
20260904171247 79 310 5.0 7.0 0.00 0.00 0.00 64 1015.9
20260904170743 80 298 3.0 5.0 0.00 0.00 0.00 68 1015.9
20260904170239 79 230 4.0 6.0 0.00 0.00 0.00 65 1015.9
20260904165738 79 148 1.0 2.0 0.00 0.00 0.00 67 1015.9
20260904165232 79 333 4.0 6.0 0.00 0.00 0.00 67 1015.6
20260904164727 79 223 2.0 2.0 0.00 0.00 0.00 68 1015.9
20260904164222 78 161 1.0 2.0 0.00 0.00 0.00 69 1015.9
20260904163719 78 21 4.0 7.0 0.00 0.00 0.00 67 1015.9
20260904163214 80 198 3.0 5.0 0.00 0.00 0.00 63 1015.9
20260904162712 79 351 2.0 2.0 0.00 0.00 0.00 67 1015.9
20260904162207 80 166 1.0 2.0 0.00 0.00 0.00 68 1015.9
20260904161703 79 176 2.0 2.0 0.00 0.00 0.00 67 1015.9
20260904161158 79 160 2.0 3.0 0.00 0.00 0.00 68 1015.9
20260904160654 80 136 1.0 2.0 0.00 0.00 0.00 67 1015.9
20260904160149 79 273 3.0 3.0 0.00 0.00 0.00 70 1015.9
20260904155644 79 170 3.0 3.0 0.00 0.00 0.00 66 1015.9
20260904155142 80 230 2.0 3.0 0.00 0.00 0.00 67 1015.9
20260904154641 79 145 1.0 2.0 0.00 0.00 0.00 70 1015.9
20260904154136 79 199 1.0 1.0 0.00 0.00 0.00 66 1015.9
20260904153632 79 294 5.0 6.0 0.00 0.00 0.00 68 1015.6
20260904153127 78 321 3.0 7.0 0.00 0.00 0.00 73 1015.9
20260904152623 77 138 2.0 3.0 0.00 0.00 0.00 72 1015.9
20260904152118 78 167 1.0 2.0 0.00 0.00 0.00 73 1015.9
20260904151613 79 198 2.0 2.0 0.00 0.00 0.00 73 1015.6
20260904151112 78 267 2.0 2.0 0.00 0.00 0.00 72 1015.6
20260904150607 75 230 2.0 3.0 0.00 0.00 0.00 74 1015.6
20260904145601 76 144 2.0 2.0 0.00 0.00 0.00 77 1015.6
20260904145056 77 157 2.0 2.0 0.00 0.00 0.00 78 1015.9
20260904144552 77 286 4.0 6.0 0.00 0.00 0.00 76 1015.6
20260904144048 78 131 1.0 2.0 0.00 0.00 0.00 77 1015.9
20260904143543 77 175 2.0 2.0 0.00 0.00 0.00 78 1015.9
20260904143040 76 304 4.0 5.0 0.00 0.00 0.00 75 1015.9
20260904142536 77 317 3.0 3.0 0.00 0.00 0.00 79 1015.6
20260904142026 77 302 4.0 6.0 0.00 0.00 0.00 79 1015.9
20260904141521 77 164 1.0 2.0 0.00 0.00 0.00 80 1015.9
20260904141017 77 141 2.0 3.0 0.00 0.00 0.00 79 1015.9
20260904140516 75 146 0.0 0.0 0.00 0.00 0.00 80 1015.9
20260904140016 75 160 0.0 0.0 0.00 0.00 0.00 83 1015.6
20260904135515 75 152 1.0 2.0 0.00 0.00 0.00 84 1015.9
20260904135012 74 218 1.0 1.0 0.00 0.00 0.00 85 1015.6
20260904134507 74 290 1.0 1.0 0.00 0.00 0.00 87 1015.6
20260904134001 74 145 1.0 1.0 0.00 0.00 0.00 87 1015.9
20260904133456 74 229 1.0 2.0 0.00 0.00 0.00 88 1016.2
20260904132952 73 0 2.0 2.0 0.00 0.00 0.00 89 1016.2
20260904132451 73 132 1.0 2.0 0.00 0.00 0.00 91 1016.2
20260904131946 72 148 0.0 0.0 0.00 0.00 0.00 92 1015.9